Showing default

ICEYE-X8, 47510

Orbit data source: Space-Track

ICEYE-X8, 47510 is a payload satellite owned by ICEYE (FI) in SSO that was launched on Sun, 24 Jan 2021 UTC via an FALCON 9 launch vehicle from the Air Force Eastern Test Range (AFETR). Payload-class satellites include a variety of spacecraft equipped with specific instruments for various scientific and technological missions. These include communications satellites like Starlink; space stations such as the ISS; scientific satellites like the Hubble; Earth observation satellites from companies like Planet Labs, Umbra, and HawkEye 360; GPS; miniature CubeSats for education and research; and military/defense satellites.

Loading next visibility...
Identifier
47510, 2021-006DB
Orbit
SSO
Country
Flag of FIFI / FIN
Related business
Manufacturer
ICEYE
Mission
Operational Commercial Radar Imaging
Bus & Motor
ICEYE, Unknown motor
Mass
80 kg wet, 80 kg dry
Launch date (UTC)
2021-01-24 (5 years ago)
Launch vehicle
FALCON 9
Launch site
Air Force Eastern Test Range (AFETR)
Object type
Payload
Rocket body
Debris
Shape & HBR
Box + 1 Pan, 1.6 m
Radar Cross Section
1.837 m², Medium (>0.1 m² and < 1m²)

Expand to show TLE details & history
Last TLE update: 2 days ago

TLE from 2 days ago
0 ICEYE-X8
1 47510U 21006DB  25286.04196944  .00057213  00000-0  26213-3 0  9991
2 47510  97.2524 354.4828 0000999 271.5963  88.5193 15.83551464263212
Epoch: 2025-10-13T01:00Z
TLE epoch observation values (Epoch: 2025-10-13T01:00:26.159Z)
Latitude
0.00003°
Longitude
-42.47664°
Altitude
323.57 km
Speed
7.714 km/s
True Right ascension
23h 37m 55s
True Declination
0° 00' 00"
Sunlit
Object was in full shadow at epoch
Visualization orbit readout
Latitude
Unknown
Longitude
Unknown
Altitude
Unknown
Speed
Unknown
Apparent Right ascension
Unknown
Apparent Declination
Unknown
Sunlit
N/A
Visualization observer readout
Local Sidereal Time
05:46:46
Azimuth
Unknown
Elevation
Unknown
Doppler factor
Unknown
Orbital elements
Apogee altitude
317.95 km
Perigee altitude
316.613 km
Semi-major axis
6,695.419 km
Eccentricity
0.0001
Inclination
97.2524°
RAAN
354.4828°
Arg. of periapsis
271.5963°
True anomaly
88.53074°
Mean anomaly
88.5193°
Eccentric anomaly
88.52502°
Mean motion
3.96165 °/min
Orbital period
90.87 mins
BSTAR
0.00026213
Loading maneuver chart data...
Computing Atmospheric mass density...

Documentation

Showing up to 5 results
|